Location: Ferintosh
(52.7647°N, 112.9692°W)
Time: 00:45:01
(UTC+00:00)

Vanguard 1 Rocket - Pass Details

Date: 24 May 2024
Orbit: 649 x 4221 km, 34.3° (Epoch: 13 June)

Event Time Altitude Azimuth Distance (km) Brightness Sun altitude
Rises 21:10:04 0° 266° (W) 6,406 12.1 52.7°
Reaches altitude 10° 21:16:52 10° 250° (WSW) 4,589 11.7 52.0°
Maximum altitude 21:23:11 16° 217° (SW) 3,293 11.3 51.4°
Drops below altitude 10° 21:27:50 10° 181° (S) 3,182 10.7 50.9°
Sets 21:31:16 0° 160° (SSE) 3,723 10.7 50.5°
